Time,TemperatureF,DewpointF,PressureIn,WindDirection,WindDirectionDegrees,WindSpeedMPH,WindSpeedGustMPH,Humidity,HourlyPrecipIn,Conditions,Clouds,dailyrainin,SoftwareType,DateUTC
2013-05-01 00:03:00,50.0,25.0,30.29,ESE,109,0.0,0.0,38,0.00,,,0.02,,2013-05-01 04:03:00,
2013-05-01 00:12:00,50.0,25.0,30.29,ESE,109,0.0,0.0,38,0.00,,,0.02,,2013-05-01 04:12:00,
2013-05-01 00:22:00,50.0,26.0,30.29,ESE,109,0.0,0.0,39,0.00,,,0.00,,2013-05-01 04:22:00,
2013-05-01 00:32:00,50.0,26.0,30.29,ESE,109,0.0,0.0,39,0.00,,,0.00,,2013-05-01 04:32:00,
2013-05-01 00:43:00,50.0,26.0,30.29,ESE,109,0.0,0.0,39,0.00,,,0.00,,2013-05-01 04:43:00,
2013-05-01 00:52:00,49.0,25.0,30.30,ESE,109,0.0,0.0,39,0.00,,,0.00,,2013-05-01 04:52:00,
2013-05-01 01:02:00,49.0,28.0,30.30,ESE,109,0.0,0.0,44,0.00,,,0.00,,2013-05-01 05:02:00,
2013-05-01 01:11:00,49.0,28.0,30.30,ESE,109,0.0,0.0,44,0.00,,,0.00,,2013-05-01 05:11:00,
2013-05-01 01:21:00,48.0,26.0,30.31,ESE,109,0.0,0.0,42,0.00,,,0.00,,2013-05-01 05:21:00,
2013-05-01 01:32:00,48.0,29.0,30.31,ESE,109,0.0,0.0,47,0.00,,,0.00,,2013-05-01 05:32:00,
2013-05-01 01:42:00,48.0,29.0,30.31,ESE,109,0.0,0.0,47,0.00,,,0.00,,2013-05-01 05:42:00,
2013-05-01 01:52:00,47.0,27.0,30.31,ESE,109,0.0,0.0,45,0.00,,,0.00,,2013-05-01 05:52:00,
2013-05-01 02:02:00,46.0,28.0,30.31,ESE,109,0.0,0.0,49,0.00,,,0.00,,2013-05-01 06:02:00,
2013-05-01 02:12:00,46.0,28.0,30.31,ESE,109,0.0,0.0,49,0.00,,,0.00,,2013-05-01 06:12:00,
2013-05-01 02:22:00,46.0,28.0,30.31,ESE,109,0.0,0.0,49,0.00,,,0.00,,2013-05-01 06:22:00,
2013-05-01 02:32:00,45.0,28.0,30.31,ESE,109,0.0,0.0,52,0.00,,,0.00,,2013-05-01 06:32:00,
2013-05-01 02:42:00,45.0,28.0,30.31,ESE,109,0.0,0.0,52,0.00,,,0.00,,2013-05-01 06:42:00,
2013-05-01 02:51:00,45.0,30.0,30.31,ESE,109,0.0,0.0,56,0.00,,,0.00,,2013-05-01 06:51:00,
2013-05-01 03:01:00,44.0,29.0,30.32,ESE,109,0.0,0.0,55,0.00,,,0.00,,2013-05-01 07:01:00,
2013-05-01 03:11:00,44.0,29.0,30.32,ESE,109,0.0,0.0,55,0.00,,,0.00,,2013-05-01 07:11:00,
2013-05-01 03:21:00,44.0,29.0,30.31,ESE,109,0.0,0.0,56,0.00,,,0.00,,2013-05-01 07:21:00,
2013-05-01 03:32:00,44.0,30.0,30.32,ESE,109,0.0,0.0,58,0.00,,,0.00,,2013-05-01 07:32:00,
2013-05-01 03:42:00,44.0,30.0,30.32,ESE,109,0.0,0.0,58,0.00,,,0.00,,2013-05-01 07:42:00,
2013-05-01 03:52:00,43.0,29.0,30.32,ESE,109,0.0,0.0,58,0.00,,,0.00,,2013-05-01 07:52:00,
2013-05-01 04:02:00,43.0,30.0,30.32,ESE,108,0.0,1.0,60,0.00,,,0.00,,2013-05-01 08:02:00,
2013-05-01 04:12:00,43.0,30.0,30.32,ESE,108,0.0,1.0,60,0.00,,,0.00,,2013-05-01 08:12:00,
2013-05-01 04:22:00,43.0,30.0,30.33,ESE,108,0.0,0.0,61,0.00,,,0.00,,2013-05-01 08:22:00,
2013-05-01 04:32:00,42.0,30.0,30.33,ESE,108,0.0,1.0,63,0.00,,,0.00,,2013-05-01 08:32:00,
2013-05-01 04:42:00,42.0,30.0,30.33,ESE,108,0.0,1.0,63,0.00,,,0.00,,2013-05-01 08:42:00,
2013-05-01 04:53:00,42.0,31.0,30.33,ESE,108,0.0,2.0,64,0.00,,,0.00,,2013-05-01 08:53:00,
2013-05-01 05:01:00,42.0,31.0,30.33,NE,38,0.0,2.0,64,0.00,,,0.00,,2013-05-01 09:01:00,
2013-05-01 05:12:00,42.0,31.0,30.33,NE,38,0.0,2.0,64,0.00,,,0.00,,2013-05-01 09:12:00,
2013-05-01 05:21:00,42.0,31.0,30.34,NE,52,0.0,3.0,64,0.00,,,0.00,,2013-05-01 09:21:00,
2013-05-01 05:33:00,42.0,31.0,30.34,NE,42,2.0,4.0,65,0.00,,,0.00,,2013-05-01 09:33:00,
2013-05-01 05:42:00,42.0,31.0,30.34,NE,42,2.0,4.0,65,0.00,,,0.00,,2013-05-01 09:42:00,
2013-05-01 05:52:00,42.0,31.0,30.34,NE,46,1.0,3.0,66,0.00,,,0.00,,2013-05-01 09:52:00,
2013-05-01 06:03:00,42.0,32.0,30.34,NE,53,0.0,2.0,67,0.00,,,0.00,,2013-05-01 10:03:00,
2013-05-01 06:12:00,42.0,32.0,30.34,NE,53,0.0,2.0,67,0.00,,,0.00,,2013-05-01 10:12:00,
2013-05-01 06:22:00,42.0,32.0,30.35,NE,49,1.0,3.0,67,0.00,,,0.00,,2013-05-01 10:22:00,
2013-05-01 06:33:00,42.0,31.0,30.35,NE,44,0.0,2.0,65,0.00,,,0.00,,2013-05-01 10:33:00,
2013-05-01 06:42:00,42.0,31.0,30.35,NE,44,0.0,2.0,65,0.00,,,0.00,,2013-05-01 10:42:00,
2013-05-01 06:52:00,42.0,31.0,30.37,NE,44,0.0,1.0,66,0.00,,,0.00,,2013-05-01 10:52:00,
2013-05-01 07:02:00,42.0,34.0,30.37,NE,43,0.0,1.0,72,0.00,,,0.00,,2013-05-01 11:02:00,
2013-05-01 07:11:00,42.0,34.0,30.37,NE,43,0.0,1.0,72,0.00,,,0.00,,2013-05-01 11:11:00,
2013-05-01 07:22:00,43.0,35.0,30.38,NE,43,0.0,2.0,72,0.00,,,0.00,,2013-05-01 11:22:00,
2013-05-01 07:32:00,45.0,34.0,30.38,ENE,73,1.0,3.0,65,0.00,,,0.00,,2013-05-01 11:32:00,
2013-05-01 07:42:00,45.0,34.0,30.38,ENE,73,1.0,3.0,65,0.00,,,0.00,,2013-05-01 11:42:00,
2013-05-01 07:51:00,46.0,34.0,30.38,East,86,1.0,4.0,63,0.00,,,0.00,,2013-05-01 11:51:00,
2013-05-01 08:01:00,48.0,33.0,30.38,ENE,70,1.0,3.0,55,0.00,,,0.00,,2013-05-01 12:01:00,
2013-05-01 08:11:00,49.0,32.0,30.39,East,80,3.0,6.0,52,0.00,,,0.00,,2013-05-01 12:11:00,
2013-05-01 08:21:00,49.0,32.0,30.39,East,80,3.0,6.0,52,0.00,,,0.00,,2013-05-01 12:21:00,
2013-05-01 08:32:00,51.0,31.0,30.40,East,81,3.0,6.0,47,0.00,,,0.00,,2013-05-01 12:32:00,
2013-05-01 08:41:00,51.0,31.0,30.40,East,81,3.0,6.0,47,0.00,,,0.00,,2013-05-01 12:41:00,
2013-05-01 08:52:00,52.0,30.0,30.40,NNE,32,3.0,6.0,43,0.00,,,0.00,,2013-05-01 12:52:00,
2013-05-01 09:01:00,54.0,30.0,30.40,ENE,76,1.0,7.0,39,0.00,,,0.00,,2013-05-01 13:01:00,
2013-05-01 09:11:00,54.0,30.0,30.40,ENE,76,1.0,7.0,39,0.00,,,0.00,,2013-05-01 13:11:00,
2013-05-01 09:21:00,56.0,29.0,30.40,ENE,67,1.0,5.0,36,0.00,,,0.00,,2013-05-01 13:21:00,
2013-05-01 09:32:00,58.0,30.0,30.40,ENE,61,2.0,6.0,34,0.00,,,0.00,,2013-05-01 13:32:00,
2013-05-01 09:42:00,58.0,30.0,30.40,ENE,61,2.0,6.0,34,0.00,,,0.00,,2013-05-01 13:42:00,
2013-05-01 09:52:00,59.0,31.0,30.40,ENE,74,4.0,7.0,34,0.00,,,0.00,,2013-05-01 13:52:00,
2013-05-01 10:02:00,60.0,25.0,30.40,NE,46,3.0,9.0,26,0.00,,,0.00,,2013-05-01 14:02:00,
2013-05-01 10:11:00,60.0,25.0,30.40,NE,46,3.0,9.0,26,0.00,,,0.00,,2013-05-01 14:11:00,
2013-05-01 10:22:00,61.0,25.0,30.40,ENE,67,4.0,9.0,25,0.00,,,0.00,,2013-05-01 14:22:00,
2013-05-01 10:32:00,63.0,29.0,30.40,East,92,1.0,8.0,27,0.00,,,0.00,,2013-05-01 14:32:00,
2013-05-01 10:42:00,63.0,29.0,30.40,East,92,1.0,8.0,27,0.00,,,0.00,,2013-05-01 14:42:00,
2013-05-01 10:51:00,62.0,27.0,30.40,ENE,64,4.0,10.0,26,0.00,,,0.00,,2013-05-01 14:51:00,
2013-05-01 11:01:00,64.0,26.0,30.40,ENE,59,4.0,8.0,24,0.00,,,0.00,,2013-05-01 15:01:00,
2013-05-01 11:11:00,64.0,26.0,30.40,ENE,59,4.0,8.0,24,0.00,,,0.00,,2013-05-01 15:11:00,
2013-05-01 11:21:00,64.0,26.0,30.40,East,85,2.0,9.0,24,0.00,,,0.00,,2013-05-01 15:21:00,
2013-05-01 11:33:00,64.0,24.0,30.40,ESE,112,5.0,16.0,22,0.00,,,0.00,,2013-05-01 15:33:00,
2013-05-01 11:43:00,64.0,24.0,30.40,ESE,112,5.0,16.0,22,0.00,,,0.00,,2013-05-01 15:43:00,
2013-05-01 11:53:00,65.0,26.0,30.40,SE,127,4.0,8.0,23,0.00,,,0.00,,2013-05-01 15:53:00,
2013-05-01 12:03:00,66.0,27.0,30.39,ESE,106,4.0,15.0,23,0.00,,,0.00,,2013-05-01 16:03:00,
2013-05-01 12:12:00,66.0,27.0,30.39,ESE,106,4.0,15.0,23,0.00,,,0.00,,2013-05-01 16:12:00,
2013-05-01 12:22:00,65.0,28.0,30.39,SE,135,1.0,8.0,25,0.00,,,0.00,,2013-05-01 16:22:00,
2013-05-01 12:32:00,67.0,29.0,30.39,ESE,118,3.0,8.0,24,0.00,,,0.00,,2013-05-01 16:32:00,
2013-05-01 12:42:00,67.0,29.0,30.39,ESE,118,3.0,8.0,24,0.00,,,0.00,,2013-05-01 16:42:00,
2013-05-01 12:53:00,65.0,30.0,30.39,East,83,5.0,11.0,27,0.00,,,0.00,,2013-05-01 16:53:00,
2013-05-01 13:02:00,65.0,34.0,30.39,ENE,77,4.0,9.0,31,0.00,,,0.00,,2013-05-01 17:02:00,
2013-05-01 13:12:00,65.0,34.0,30.39,ENE,77,4.0,9.0,31,0.00,,,0.00,,2013-05-01 17:12:00,
2013-05-01 13:22:00,65.0,35.0,30.39,South,176,3.0,8.0,33,0.00,,,0.00,,2013-05-01 17:22:00,
2013-05-01 13:32:00,65.0,37.0,30.39,ENE,73,5.0,11.0,36,0.00,,,0.00,,2013-05-01 17:32:00,
2013-05-01 13:42:00,65.0,37.0,30.40,East,84,6.0,11.0,35,0.00,,,0.00,,2013-05-01 17:42:00,
2013-05-01 13:52:00,65.0,37.0,30.40,East,84,6.0,11.0,35,0.00,,,0.00,,2013-05-01 17:52:00,
2013-05-01 14:01:00,65.0,38.0,30.39,ESE,120,4.0,9.0,37,0.00,,,0.00,,2013-05-01 18:01:00,
2013-05-01 14:11:00,65.0,38.0,30.39,ESE,120,4.0,9.0,37,0.00,,,0.00,,2013-05-01 18:11:00,
2013-05-01 14:22:00,65.0,36.0,30.39,East,90,4.0,10.0,34,0.00,,,0.00,,2013-05-01 18:22:00,
2013-05-01 14:32:00,65.0,34.0,30.38,East,85,4.0,9.0,32,0.00,,,0.00,,2013-05-01 18:32:00,
2013-05-01 14:42:00,65.0,34.0,30.38,East,85,4.0,9.0,32,0.00,,,0.00,,2013-05-01 18:42:00,
2013-05-01 14:52:00,66.0,36.0,30.39,East,89,4.0,11.0,33,0.00,,,0.00,,2013-05-01 18:52:00,
2013-05-01 15:02:00,65.0,37.0,30.39,ESE,106,5.0,15.0,36,0.00,,,0.00,,2013-05-01 19:02:00,
2013-05-01 15:11:00,65.0,37.0,30.39,ESE,106,5.0,15.0,36,0.00,,,0.00,,2013-05-01 19:11:00,
2013-05-01 15:22:00,65.0,37.0,30.38,ENE,72,7.0,13.0,35,0.00,,,0.00,,2013-05-01 19:22:00,
2013-05-01 15:32:00,65.0,36.0,30.38,East,101,6.0,10.0,34,0.00,,,0.00,,2013-05-01 19:32:00,
2013-05-01 15:43:00,65.0,36.0,30.38,East,101,6.0,10.0,34,0.00,,,0.00,,2013-05-01 19:43:00,
2013-05-01 15:52:00,65.0,36.0,30.38,East,90,5.0,12.0,34,0.00,,,0.00,,2013-05-01 19:52:00,
2013-05-01 16:02:00,66.0,36.0,30.38,East,82,6.0,12.0,33,0.00,,,0.00,,2013-05-01 20:02:00,
2013-05-01 16:11:00,66.0,36.0,30.38,East,82,6.0,12.0,33,0.00,,,0.00,,2013-05-01 20:11:00,
2013-05-01 16:21:00,66.0,35.0,30.38,SE,126,4.0,11.0,32,0.00,,,0.00,,2013-05-01 20:21:00,
2013-05-01 16:32:00,65.0,38.0,30.38,East,95,3.0,10.0,37,0.00,,,0.00,,2013-05-01 20:32:00,
2013-05-01 16:42:00,65.0,38.0,30.38,East,95,3.0,10.0,37,0.00,,,0.00,,2013-05-01 20:42:00,
2013-05-01 16:52:00,65.0,38.0,30.38,ENE,73,3.0,10.0,37,0.00,,,0.00,,2013-05-01 20:52:00,
2013-05-01 17:01:00,64.0,39.0,30.38,South,176,2.0,10.0,40,0.00,,,0.00,,2013-05-01 21:01:00,
2013-05-01 17:11:00,64.0,39.0,30.38,South,176,2.0,10.0,40,0.00,,,0.00,,2013-05-01 21:11:00,
2013-05-01 17:22:00,64.0,39.0,30.38,ESE,108,1.0,9.0,40,0.00,,,0.00,,2013-05-01 21:22:00,
2013-05-01 17:32:00,64.0,38.0,30.38,ESE,103,1.0,9.0,38,0.00,,,0.00,,2013-05-01 21:32:00,
2013-05-01 17:43:00,64.0,40.0,30.38,SW,227,1.0,5.0,41,0.00,,,0.00,,2013-05-01 21:43:00,
2013-05-01 17:53:00,64.0,40.0,30.38,SW,227,1.0,5.0,41,0.00,,,0.00,,2013-05-01 21:53:00,
2013-05-01 18:03:00,64.0,39.0,30.38,ESE,114,5.0,11.0,40,0.00,,,0.00,,2013-05-01 22:03:00,
2013-05-01 18:12:00,64.0,39.0,30.38,ESE,114,5.0,11.0,40,0.00,,,0.00,,2013-05-01 22:12:00,
2013-05-01 18:23:00,63.0,40.0,30.39,SE,143,1.0,5.0,42,0.00,,,0.00,,2013-05-01 22:23:00,
2013-05-01 18:33:00,63.0,41.0,30.38,SSW,206,1.0,7.0,44,0.00,,,0.00,,2013-05-01 22:33:00,
2013-05-01 18:42:00,63.0,41.0,30.38,SSW,206,1.0,7.0,44,0.00,,,0.00,,2013-05-01 22:42:00,
2013-05-01 18:52:00,63.0,41.0,30.39,SE,138,0.0,3.0,45,0.00,,,0.00,,2013-05-01 22:52:00,
2013-05-01 19:02:00,62.0,42.0,30.39,SSW,202,1.0,6.0,47,0.00,,,0.00,,2013-05-01 23:02:00,
2013-05-01 19:12:00,62.0,42.0,30.39,SSW,202,1.0,6.0,47,0.00,,,0.00,,2013-05-01 23:12:00,
2013-05-01 19:21:00,62.0,42.0,30.40,ESE,110,0.0,4.0,48,0.00,,,0.00,,2013-05-01 23:21:00,
2013-05-01 19:32:00,61.0,42.0,30.40,East,87,2.0,7.0,49,0.00,,,0.00,,2013-05-01 23:32:00,
2013-05-01 19:42:00,61.0,42.0,30.40,East,87,2.0,7.0,49,0.00,,,0.00,,2013-05-01 23:42:00,
2013-05-01 19:52:00,61.0,43.0,30.40,SW,222,2.0,5.0,51,0.00,,,0.00,,2013-05-01 23:52:00,
2013-05-01 20:01:00,60.0,43.0,30.40,SW,227,0.0,4.0,54,0.00,,,0.00,,2013-05-02 00:01:00,
2013-05-01 20:11:00,60.0,43.0,30.40,SW,227,0.0,4.0,54,0.00,,,0.00,,2013-05-02 00:11:00,
2013-05-01 20:21:00,59.0,43.0,30.41,SSW,200,1.0,4.0,55,0.00,,,0.00,,2013-05-02 00:21:00,
2013-05-01 20:32:00,58.0,42.0,30.41,SSW,206,0.0,3.0,56,0.00,,,0.00,,2013-05-02 00:32:00,
2013-05-01 20:42:00,58.0,42.0,30.41,SSW,206,0.0,3.0,56,0.00,,,0.00,,2013-05-02 00:42:00,
2013-05-01 20:52:00,57.0,43.0,30.41,ESE,113,0.0,0.0,59,0.00,,,0.00,,2013-05-02 00:52:00,
2013-05-01 21:01:00,56.0,43.0,30.42,ESE,113,0.0,0.0,62,0.00,,,0.00,,2013-05-02 01:01:00,
2013-05-01 21:11:00,56.0,43.0,30.42,ESE,113,0.0,0.0,62,0.00,,,0.00,,2013-05-02 01:11:00,
2013-05-01 21:22:00,56.0,43.0,30.43,South,174,0.0,2.0,62,0.00,,,0.00,,2013-05-02 01:22:00,
2013-05-01 21:32:00,55.0,42.0,30.43,South,178,0.0,4.0,61,0.00,,,0.00,,2013-05-02 01:32:00,
2013-05-01 21:42:00,55.0,42.0,30.43,South,178,0.0,4.0,61,0.00,,,0.00,,2013-05-02 01:42:00,
2013-05-01 21:52:00,55.0,42.0,30.43,SW,216,0.0,3.0,62,0.00,,,0.00,,2013-05-02 01:52:00,
2013-05-01 22:02:00,54.0,42.0,30.44,SW,221,0.0,2.0,63,0.00,,,0.00,,2013-05-02 02:02:00,
2013-05-01 22:12:00,54.0,42.0,30.44,SW,221,0.0,2.0,63,0.00,,,0.00,,2013-05-02 02:12:00,
2013-05-01 22:21:00,54.0,42.0,30.44,SW,221,0.0,0.0,64,0.00,,,0.00,,2013-05-02 02:21:00,
2013-05-01 22:32:00,53.0,42.0,30.45,SW,221,0.0,0.0,66,0.00,,,0.00,,2013-05-02 02:32:00,
2013-05-01 22:42:00,53.0,42.0,30.45,SW,221,0.0,0.0,66,0.00,,,0.00,,2013-05-02 02:42:00,
2013-05-01 22:51:00,53.0,42.0,30.45,SW,221,0.0,0.0,66,0.00,,,0.00,,2013-05-02 02:51:00,
2013-05-01 23:01:00,52.0,41.0,30.44,SW,221,0.0,0.0,67,0.00,,,0.00,,2013-05-02 03:01:00,
2013-05-01 23:11:00,52.0,41.0,30.44,SW,221,0.0,0.0,67,0.00,,,0.00,,2013-05-02 03:11:00,
2013-05-01 23:22:00,52.0,41.0,30.44,SW,221,0.0,0.0,67,0.00,,,0.00,,2013-05-02 03:22:00,
2013-05-01 23:33:00,52.0,41.0,30.44,SW,221,0.0,0.0,67,0.00,,,0.00,,2013-05-02 03:33:00,
2013-05-01 23:43:00,52.0,41.0,30.44,SW,221,0.0,0.0,67,0.00,,,0.00,,2013-05-02 03:43:00,
2013-05-01 23:53:00,51.0,41.0,30.44,SW,221,0.0,0.0,68,0.00,,,0.00,,2013-05-02 03:53:00,